Weather in Chester

United Kingdom     53°11′51″N   2°53′40″W
temp.,
°C
wind,
m/s
gust,
m/s
humid.,
%
clouds,
%
prec.,
mm/h
press.,
hPa
HPBL,
m
13 may, thu
thu1301:00+7nnw229497 0.1 100950
04:00+7nnw2294100 0.0 100832
07:00+8nw1290100 0.1 1008118
10:00+10nnw2285100 0.4 1009209
13:00+12nw2273100 0.6 1009672
16:00+12nw3365100 0.1 1008683
19:00+9nw3678100 0.3 1009271
22:00+8nw2494100 0.1 1010106
14 may, fri
fri1401:00+7e1196100 0.1 101023
04:00+6ese1193100 0.0 101015
07:00+7ese1389100 0.0 1010126
10:00+11se237064 0.0 1011854
13:00+13se335970 0.1 10091432
16:00+14se4458100 0.1 10081435
19:00+12se3672100 0.2 1007374
22:00+9se51093100 0.6 1006468
15 may, sat
sat1501:00+8se3996100 2.2 1004424
04:00+7se3698100 1.5 1003287
07:00+8se359873 1.7 1002245
10:00+11sse4581100 0.4 1001910
13:00+10sse5681100 1.3 1001995
16:00+10s2479100 0.1 1000636
19:00+11wnw128799 0.9 999125
22:00+8w1194100 0.7 99927
16 may, sun
sun1601:00+6sw11945 0.8 99913
04:00+5s119494 0.0 99817
07:00+7sse239395 0.0 99898
10:00+11s237699 0.3 998757
13:00+11s248179 1.1 997466
16:00+10s2491100 1.3 996135
19:00+11sse3590100 2.4 995383
22:00+9ese2597100 0.6 996149
17 may, mon
mon1701:00+8e129687 1.2 99667
04:00+9n2498100 1.8 996133
07:00+9nnw249799 2.3 998249
10:00+10nw359295 0.2 1001489
13:00+13nw676862 0.4 10031109
16:00+12nw677023 0.1 10051040
19:00+11nw597829 0.1 1007837
22:00+8wnw4118828 0.0 1009481